{"data":{"norad_id":57627,"intl_designator":"2023-121B","name":"HEAD-3B","alt_names":[],"object_type":"PAYLOAD","status":"ACTIVE","operator":null,"country":"PRC","launch_date":"2023-08-14","launch_site_code":"XICLF","launch_vehicle":null,"mission":null,"orbit_class":"UNKNOWN","rcs_meters":null,"size_class":null,"mass_kg":null,"dimensions":null,"purposes":[],"wikipedia_slug":null,"has_3d_model":false,"image_url":null,"decayed_at":null,"tle_current":{"epoch":"2026-05-25T04:34:57.242784Z","epoch_age_seconds":69070,"freshness":"FRESH","line1":"1 57627U 23121B   26145.19094031  .00000715  00000+0  17461-3 0  9995","line2":"2 57627  45.0034  58.1460 0004572 153.5911 206.5180 14.61535424148305","mean_motion":14.61535424,"eccentricity":0.0004572,"inclination_deg":45.0034,"raan_deg":58.146,"arg_perigee_deg":153.5911,"mean_anomaly_deg":206.518,"bstar":0.00017461,"rev_number":14830,"period_min":98.526520558697,"perigee_km":684.98984619879,"apogee_km":691.45132357441,"semimajor_km":7066.3575848866,"source":"CELESTRAK","updated_at":"2026-05-25T13:38:00.148625Z"}}}